[[{"header":{"parameterUnit":"m.s-1","parameterCategory":1,"la1":30.2991,"la2":30.254,"lo1":-89.0895,"lo2":-89.0444,"dy":0.0017,"dx":0.0017,"nx":28,"ny":28,"refTime":"2024-03-31T21:00:00:Z","depth":0,"parameterNumber":2,"parameterNumberName":"U-component_of_WINDS"},"data":[0,0,0,0,0,0,0,0,0,0,0,0,0,0,0,0,0,0,0,0,0,0,0,0,0,0,0,0,0,0,0,0,0,0,0,0,0,0,0,0,0,0,0,0,0,0,0,0,0,0,0,0,0,0,0,0,0,0,-1.0946,-1.0946,0,-1.1021,-1.1022,-1.1023,-1.1019,-1.1018,-1.1017,-1.1016,-1.1094,-1.1097,-1.11,0,0,0,0,0,0,0,0,0,0,0,0,0,-1.0797,-1.08,-1.0946,-1.0947,-1.0947,-1.1021,-1.1022,-1.1023,-1.1019,-1.1018,-1.1016,-1.1015,-1.1093,-1.1096,-1.11,0,0,0,0,0,0,0,0,0,0,0,0,0,-1.0866,-1.0801,-1.0945,-1.0954,-1.0956,-1.1021,-1.1022,-1.1023,-1.1019,-1.1018,-1.1016,-1.1014,-1.1091,-1.1096,-1.1101,-1.1162,0,0,-1.1115,-1.1117,0,0,0,0,0,0,0,0,-1.0862,-1.0872,-1.0952,-1.0954,-1.0956,-1.1009,-1.0998,-1.107,-1.102,-1.0995,-1.1015,-1.1014,-1.1067,-1.1073,-1.1091,-1.1166,-1.1169,-1.1115,-1.1118,-1.112,-1.1121,0,0,0,0,0,0,0,-1.0858,-1.0868,-1.0975,-1.0953,-1.0955,-1.0954,-1.0962,-1.1012,-1.1039,-1.0997,-1.0997,-1.1006,-1.1067,-1.1087,-1.1093,-1.117,-1.1115,-1.1119,-1.1122,-1.1124,-1.1297,-1.1298,0,0,0,0,0,0,-1.0851,-1.0864,-1.0973,-1.0978,-1.0904,-1.0958,-1.0967,-1.0993,-1.1039,-1.1044,-1.1007,-1.1006,-1.108,-1.1088,-1.1096,-1.1169,-1.112,-1.1124,-1.1127,-1.1295,-1.1297,-1.1299,0,0,0,0,0,0,-1.0848,-1.0861,-1.097,-1.0921,-1.0935,-1.0963,-1.0992,-1.0996,-1.1015,-1.1046,-1.1051,-1.1022,-1.1079,-1.1089,-1.1145,-1.1171,-1.1126,-1.1131,-1.1293,-1.1295,-1.1298,-1.1316,0,0,0,0,0,0,-1.0843,-1.0859,-1.0883,-1.0922,-1.0938,-1.1018,-1.0994,-1.0998,-1.1023,-1.1021,-1.1061,-1.1066,-1.1078,-1.1138,-1.115,-1.1177,-1.1134,-1.129,-1.1294,-1.1297,-1.1313,-1.1319,-1.1324,0,0,0,0,0,-1.0838,-1.0886,-1.0884,-1.0898,-1.0968,-1.102,-1.1029,-1.1041,-1.1025,-1.1049,-1.1069,-1.1065,-1.1167,-1.1144,-1.1157,-1.1186,-1.1289,-1.1293,-1.1297,-1.1311,-1.1318,-1.1324,0,0,0,0,0,0,-1.085,-1.0891,-1.089,-1.0952,-1.0982,-1.1019,-1.1049,-1.1049,-1.1084,-1.1081,-1.1095,-1.1105,-1.116,-1.1179,-1.1152,-1.1247,-1.1226,-1.1233,-1.1232,-1.1239,-1.1244,-1.1238,-1.1138,0,0,0,0,0,-1.086,-1.0899,-1.0933,-1.0984,-1.0999,-1.1022,-1.1045,-1.1051,-1.1084,-1.1097,-1.1121,-1.1152,-1.1191,-1.1216,-1.1254,-1.1317,-1.1324,-1.1343,-1.1348,-1.1353,-1.1358,-1.139,-1.1398,-1.1312,-1.1312,-1.1312,0,0,-1.0881,-1.0908,-1.0932,-1.0987,-1.1011,-1.105,-1.1032,-1.1075,-1.1104,-1.1103,-1.1156,-1.1175,-1.1212,-1.127,-1.1297,-1.1288,-1.1383,-1.1358,-1.1361,-1.1364,-1.1395,-1.1403,-1.141,-1.1315,-1.1314,-1.1314,0,0,-1.0938,-1.0964,-1.1008,-1.1032,-1.1069,-1.1084,-1.1094,-1.1131,-1.1143,-1.1197,-1.1196,-1.1231,-1.1299,-1.1324,-1.1345,-1.1411,-1.1408,-1.1423,-1.1451,-1.1482,-1.1488,-1.1494,-1.1516,-1.1523,-1.1428,-1.1429,-1.1429,0,-1.0959,-1.1018,-1.1031,-1.1073,-1.1096,-1.1097,-1.1141,-1.1165,-1.1212,-1.1228,-1.1217,-1.13,-1.1325,-1.1388,-1.1404,-1.1422,-1.1434,-1.1417,-1.1487,-1.1493,-1.1498,-1.1519,-1.1527,-1.143,-1.143,-1.143,-1.1429,0,-1.1041,-1.1082,-1.1113,-1.1158,-1.1185,-1.1228,-1.1247,-1.1273,-1.1277,-1.1293,-1.1347,-1.1376,-1.1419,-1.1435,-1.144,-1.1499,-1.1491,-1.1484,-1.1462,-1.1508,-1.1527,-1.1535,-1.1432,-1.1431,-1.1431,-1.1431,0,0,-1.1108,-1.1158,-1.1169,-1.1188,-1.1228,-1.126,-1.1303,-1.1344,-1.1365,-1.1398,-1.1433,-1.149,-1.1482,-1.1507,-1.1515,-1.1543,-1.159,-1.1531,-1.1532,-1.1539,-1.1654,-1.1658,-1.1667,-1.1589,-1.1591,-1.1592,-1.165,0,-1.1167,-1.1242,-1.1254,-1.132,-1.1357,-1.1357,-1.1395,-1.1423,-1.1439,-1.1472,-1.149,-1.1529,-1.1517,-1.1531,-1.1559,-1.1578,-1.1613,-1.1574,-1.1621,-1.1622,-1.1609,-1.1677,-1.1682,-1.1735,-1.1658,-1.1659,-1.166,0,-1.1247,-1.128,-1.1349,-1.1382,-1.1398,-1.1431,-1.1469,-1.1501,-1.1533,-1.1543,-1.1569,-1.1574,-1.1618,-1.1596,-1.1656,-1.163,-1.165,-1.1662,-1.1664,-1.1667,-1.1642,-1.168,-1.1753,-1.176,-1.1672,-1.1671,-1.1671,0,-1.1285,-1.1348,-1.1396,-1.1413,-1.1454,-1.1477,-1.1495,-1.1526,-1.1549,-1.1582,-1.1597,-1.1636,-1.1656,-1.1686,-1.17,-1.1684,-1.1759,-1.1739,-1.1767,-1.1766,-1.1781,-1.1779,-1.1855,-1.1797,-1.1797,-1.1797,-1.1797,0,-1.1349,-1.139,-1.1414,-1.1443,-1.149,-1.1503,-1.1549,-1.1567,-1.1593,-1.1626,-1.1631,-1.1661,-1.168,-1.1713,-1.1725,-1.1772,-1.1782,-1.179,-1.1792,-1.1788,-1.1787,-1.18,-1.1796,-1.1799,-1.1799,-1.1798,-1.1798,0,-1.1399,-1.1416,-1.1469,-1.1503,-1.1513,-1.1545,-1.1574,-1.1603,-1.1618,-1.166,-1.167,-1.1695,-1.1734,-1.1752,-1.1801,-1.1809,-1.1861,-1.1862,-1.185,-1.185,-1.1876,-1.1872,-1.1962,-1.1973,-1.1909,-1.191,-1.1911,0,-1.1437,-1.1469,-1.1506,-1.1528,-1.1546,-1.1582,-1.1605,-1.162,-1.1644,-1.1682,-1.1706,-1.1745,-1.1777,-1.184,-1.1862,-1.19,-1.19,-1.1929,-1.1906,-1.19,-1.1898,-1.1895,-1.1897,-1.1932,-1.1933,-1.1933,-1.1934,0,-1.1503,-1.151,-1.1543,-1.1579,-1.1606,-1.1636,-1.1664,-1.1682,-1.1701,-1.1728,-1.1768,-1.1793,-1.1842,-1.1881,-1.1919,-1.1938,-1.1939,-1.1941,-1.1949,-1.1944,-1.1935,-1.1938,-1.1859,-1.1939,-1.1938,-1.1938,-1.1938,-1.1937,-1.1547,-1.1574,-1.1604,-1.164,-1.1663,-1.1689,-1.1717,-1.1736,-1.1769,-1.1809,-1.1816,-1.1858,-1.1889,-1.194,-1.196,-1.1993,-1.1986,-1.1999,-1.2001,-1.2003,-1.2003,-1.1931,-1.2001,-1.2001,-1.2001,-1.2,-1.2,0,-1.1611,-1.163,-1.1663,-1.1702,-1.173,-1.1729,-1.176,-1.1784,-1.182,-1.1848,-1.1879,-1.1924,-1.1961,-1.1986,-1.2024,-1.2045,-1.2046,-1.2054,-1.2052,-1.2055,-1.2009,-1.1997,-1.2052,-1.2052,-1.2052,-1.2052,-1.2052,-1.2052,-1.1647,-1.1692,-1.1702,-1.1759,-1.1778,-1.1818,-1.1835,-1.1859,-1.1881,-1.1931,-1.1961,-1.1977,-1.2004,-1.2043,-1.2077,-1.2083,-1.2096,-1.2103,-1.2109,-1.2065,-1.2059,-1.2054,-1.2043,-1.2107,-1.2107,-1.2153,-1.2153,-1.2154]},{"header":{"parameterUnit":"m.s-1","parameterCategory":1,"la1":30.2991,"la2":30.254,"lo1":-89.0895,"lo2":-89.0444,"dy":0.0017,"dx":0.0017,"nx":28,"ny":28,"refTime":"2024-03-31T21:00:00:Z","depth":0,"parameterNumber":3,"parameterNumberName":"V-component_of_WINDS"},"data":[0,0,0,0,0,0,0,0,0,0,0,0,0,0,0,0,0,0,0,0,0,0,0,0,0,0,0,0,0,0,0,0,0,0,0,0,0,0,0,0,0,0,0,0,0,0,0,0,0,0,0,0,0,0,0,0,0,0,4.0806,4.0806,0,4.075,4.075,4.0749,4.0751,4.0751,4.0752,4.0753,4.0691,4.0688,4.0686,0,0,0,0,0,0,0,0,0,0,0,0,0,4.091,4.0908,4.0806,4.0805,4.0805,4.075,4.075,4.0749,4.075,4.0751,4.0752,4.0753,4.0691,4.0689,4.0686,0,0,0,0,0,0,0,0,0,0,0,0,0,4.0861,4.0908,4.0806,4.0799,4.0798,4.0751,4.075,4.0749,4.075,4.0751,4.0753,4.0754,4.0692,4.0689,4.0685,4.064,0,0,4.0674,4.0673,0,0,0,0,0,0,0,0,4.0863,4.0857,4.0801,4.08,4.0798,4.0759,4.0764,4.0712,4.075,4.0768,4.0753,4.0754,4.0712,4.0707,4.0694,4.0637,4.0634,4.0674,4.0672,4.067,4.0669,0,0,0,0,0,0,0,4.0867,4.0859,4.0784,4.08,4.0798,4.0797,4.0792,4.0754,4.0734,4.0767,4.0767,4.076,4.0711,4.0697,4.0692,4.0633,4.0674,4.0671,4.0669,4.0667,4.0538,4.0537,0,0,0,0,0,0,4.0872,4.0862,4.0786,4.0782,4.0835,4.0795,4.0788,4.077,4.0734,4.073,4.0759,4.0761,4.0703,4.0696,4.069,4.0636,4.067,4.0667,4.0665,4.0539,4.0538,4.0536,0,0,0,0,0,0,4.0875,4.0866,4.0788,4.0822,4.0812,4.0792,4.0771,4.0768,4.0754,4.0729,4.0725,4.0749,4.0703,4.0695,4.0653,4.0633,4.0665,4.0662,4.0541,4.0539,4.0537,4.0526,0,0,0,0,0,0,4.0878,4.0866,4.085,4.0822,4.081,4.0753,4.077,4.0766,4.0749,4.075,4.0718,4.0714,4.0704,4.0658,4.0649,4.0629,4.0659,4.0542,4.054,4.0538,4.0528,4.0524,4.052,0,0,0,0,0,4.0881,4.0847,4.0849,4.084,4.0789,4.0752,4.0745,4.0736,4.0747,4.073,4.0714,4.0715,4.0637,4.0654,4.0644,4.0622,4.0544,4.0541,4.0538,4.053,4.0525,4.052,0,0,0,0,0,0,4.0871,4.0844,4.0845,4.0801,4.0779,4.0752,4.073,4.073,4.0703,4.0705,4.0693,4.0686,4.0644,4.0629,4.0648,4.0577,4.0592,4.0587,4.0589,4.0584,4.058,4.0585,4.0656,0,0,0,0,0,4.0865,4.0838,4.0814,4.0778,4.0767,4.075,4.0734,4.0729,4.0704,4.0695,4.0675,4.0651,4.0621,4.0601,4.0572,4.0526,4.0519,4.0506,4.0502,4.0499,4.0495,4.047,4.0464,4.0527,4.0527,4.0527,0,0,4.0849,4.0831,4.0814,4.0775,4.0758,4.073,4.0742,4.0711,4.069,4.0689,4.0649,4.0634,4.0606,4.0562,4.0541,4.0548,4.0476,4.0495,4.0493,4.049,4.0467,4.0461,4.0455,4.0525,4.0525,4.0525,0,0,4.0807,4.079,4.0759,4.0742,4.0716,4.0705,4.0698,4.0671,4.0662,4.0622,4.0621,4.0595,4.0543,4.0524,4.0507,4.0459,4.0459,4.045,4.043,4.0406,4.0401,4.0397,4.0381,4.0375,4.0446,4.0446,4.0446,0,4.0791,4.075,4.0742,4.0712,4.0695,4.0695,4.0663,4.0646,4.0611,4.0599,4.0607,4.0544,4.0524,4.0477,4.0465,4.0451,4.0442,4.0454,4.0403,4.0398,4.0394,4.0379,4.0372,4.0445,4.0445,4.0445,4.0445,0,4.0732,4.0703,4.0681,4.065,4.063,4.0599,4.0586,4.0567,4.0563,4.0552,4.0511,4.0489,4.0456,4.0444,4.0439,4.0395,4.04,4.0406,4.042,4.0387,4.0373,4.0367,4.0444,4.0444,4.0444,4.0444,0,0,4.0681,4.0648,4.064,4.0627,4.0598,4.0575,4.0544,4.0514,4.0498,4.0474,4.0448,4.0405,4.0411,4.0392,4.0385,4.0364,4.0329,4.0372,4.0371,4.0365,4.028,4.0277,4.027,4.0329,4.0328,4.0327,4.0283,0,4.0637,4.0584,4.0577,4.0529,4.0503,4.0503,4.0476,4.0456,4.0444,4.0419,4.0406,4.0376,4.0385,4.0374,4.0353,4.0338,4.0312,4.034,4.0304,4.0302,4.0312,4.0262,4.0259,4.0218,4.0277,4.0276,4.0275,0,4.0578,4.0556,4.0506,4.0483,4.0472,4.0448,4.0421,4.0397,4.0373,4.0366,4.0346,4.0343,4.031,4.0325,4.028,4.03,4.0284,4.0274,4.0273,4.0269,4.0287,4.0258,4.0205,4.02,4.0266,4.0267,4.0267,0,4.0548,4.0505,4.047,4.0458,4.043,4.0413,4.0401,4.0378,4.0361,4.0337,4.0325,4.0296,4.0281,4.0258,4.0246,4.0259,4.0202,4.0216,4.0195,4.0196,4.0183,4.0184,4.0128,4.0172,4.0172,4.0172,4.0172,0,4.05,4.047,4.0456,4.0435,4.0401,4.0393,4.0359,4.0347,4.0327,4.0303,4.03,4.0277,4.0263,4.0238,4.0228,4.0192,4.0185,4.0178,4.0176,4.0179,4.018,4.0169,4.0172,4.0171,4.0171,4.0171,4.0172,0,4.0461,4.045,4.0412,4.039,4.0384,4.036,4.034,4.0319,4.0308,4.0277,4.0269,4.0252,4.0222,4.0208,4.017,4.0164,4.0124,4.0123,4.0133,4.0132,4.0112,4.0115,4.0047,4.0038,4.0087,4.0087,4.0086,0,4.0431,4.0408,4.0384,4.0369,4.0356,4.0331,4.0314,4.0305,4.0287,4.026,4.0242,4.0213,4.0189,4.0141,4.0124,4.0095,4.0094,4.0073,4.009,4.0094,4.0095,4.0097,4.0095,4.007,4.0069,4.0069,4.0069,0,4.038,4.0377,4.0353,4.0329,4.031,4.0289,4.0269,4.0256,4.0243,4.0224,4.0195,4.0176,4.0139,4.011,4.0081,4.0066,4.0065,4.0063,4.0057,4.006,4.0067,4.0064,4.0125,4.0065,4.0065,4.0066,4.0066,4.0066,4.0345,4.0326,4.0306,4.0281,4.0265,4.0247,4.0227,4.0215,4.0191,4.0161,4.0157,4.0126,4.0103,4.0064,4.0049,4.0024,4.0029,4.0019,4.0017,4.0015,4.0015,4.0071,4.0018,4.0018,4.0018,4.0018,4.0018,0,4.0295,4.0283,4.026,4.0233,4.0213,4.0216,4.0194,4.0177,4.0151,4.0131,4.0108,4.0075,4.0047,4.0028,4.0,3.9984,3.9983,3.9976,3.9978,3.9975,4.0011,4.002,3.9978,3.9978,3.9978,3.9978,3.9978,3.9978,4.0267,4.0235,4.0229,4.0189,4.0176,4.0148,4.0135,4.0118,4.0103,4.0066,4.0044,4.0033,4.0014,3.9984,3.9959,3.9954,3.9944,3.9938,3.9933,3.9968,3.9972,3.9976,3.9984,3.9935,3.9935,3.9899,3.9899,3.9899]}]]